Temperature
20 20 20 20 19 19 19 19 19 19 19 19 19 19 19 19 19 19 19 19 19 18 18 18 18 18 18 18 18 18 18 18 18 18 18 18 18 17 17 17 17 17 17
20 21 20 20 19 19 19 19 19 19 19 19 19 19 19 19 19 19 18 18 18 18 18 18 18 18 18 18 18 18 18 18 18 18 18 18 17 17 17 17 17 17 17
20 21 20 20 19 19 19 19 19 19 19 19 19 18 18 18 18 18 18 18 18 18 18 18 18 18 18 18 18 18 18 18 18 17 17 17 17 17 17 17 17 17 17
20 20 20 20 19 19 19 19 19 19 19 19 18 18 18 18 18 18 18 18 18 18 18 18 18 18 18 18 18 18 18 17 17 17 17 17 17 17 17 17 17 17 17
20 20 20 20 19 19 19 19 19 19 19 18 18 18 18 18 18 18 18 18 18 18 18 18 18 18 18 18 18 18 17 17 17 17 17 17 17 17 17 17 17 17 17
20 20 20 20 19 19 19 19 19 19 18 18 18 18 18 18 18 18 18 18 18 18 18 18 18 18 18 18 18 18 18 17 17 17 17 17 17 17 17 17 17 17 17
20 20 20 20 19 19 19 19 19 19 18 18 18 18 18 18 18 18 18 18 18 18 18 18 18 18 18 18 18 18 18 17 17 17 17 17 17 17 17 17 17 17 17
20 20 21 20 20 19 19 19 19 18 18 18 18 18 18 18 18 18 18 18 18 18 18 18 18 18 18 18 18 18 18 17 17 17 17 17 17 17 17 17 17 17 16
21 20 20 20 20 20 19 19 19 19 18 18 18 18 18 18 18 18 18 18 18 18 18 18 18 18 18 18 18 18 18 18 17 17 17 17 17 17 17 17 17 16 16
21 20 20 19 20 19 19 19 19 19 19 19 19 18 18 18 18 18 18 18 18 18 18 18 18 18 18 18 18 18 18 18 18 17 18 18 17 17 17 17 17 16 16
21 21 20 19 19 19 19 19 19 19 19 19 18 18 18 18 18 18 18 18 18 18 18 18 18 18 18 18 18 18 18 18 18 17 18 18 17 17 17 17 17 17 16
22 21 21 20 20 19 19 19 19 18 18 18 18 18 18 18 18 18 18 18 18 18 18 18 18 18 18 18 18 18 18 18 18 18 18 18 18 17 17 17 17 17 16
22 21 21 20 20 20 19 19 19 18 18 18 18 18 18 18 18 18 18 18 18 18 18 18 18 18 18 18 18 18 18 18 18 18 18 18 18 17 17 17 17 17 17
22 22 21 20 20 20 20 19 19 19 19 18 18 18 18 18 18 18 18 18 18 18 18 18 18 18 18 18 18 18 18 18 18 18 18 18 18 18 17 17 17 17 17
22 21 21 20 20 20 20 19 19 19 19 19 19 18 18 18 18 18 18 18 18 18 18 18 18 18 18 18 18 18 18 18 18 18 18 18 18 18 17 17 17 17 17
21 21 21 20 20 20 20 19 19 19 19 19 19 18 18 18 18 18 18 18 18 18 18 18 18 18 18 18 18 18 18 18 18 18 18 18 18 18 17 17 17 17 17
21 21 21 20 20 20 19 19 19 19 19 19 19 18 18 18 18 18 18 18 18 18 18 18 18 18 18 18 18 18 18 18 18 17 17 18 18 17 17 17 17 17 17
21 21 21 20 20 20 19 19 19 19 19 19 19 18 18 18 18 18 18 18 18 18 18 18 18 18 18 18 18 18 18 18 18 18 17 17 17 17 17 17 17 17 17
21 21 21 20 20 20 20 19 19 19 19 19 19 18 18 18 18 18 18 18 18 18 18 18 18 18 18 18 18 18 18 18 18 18 18 18 17 17 17 17 17 17 17
21 21 21 20 20 20 20 19 19 19 19 19 19 19 18 18 18 18 18 18 18 18 18 18 18 18 18 18 18 18 18 18 18 18 18 18 18 18 18 17 17 17 17
21 21 21 21 20 20 20 19 19 19 19 19 19 19 19 18 18 18 18 18 18 18 18 18 18 18 18 18 18 18 18 18 18 18 18 18 18 18 18 17 17 17 17
21 21 21 21 20 20 20 19 19 19 19 19 19 19 19 18 18 18 18 18 18 18 18 18 18 18 18 18 18 18 18 18 19 19 18 18 18 18 18 18 18 17 17
21 21 21 21 20 20 20 19 19 19 19 19 19 19 19 18 18 18 18 18 18 18 18 18 18 18 18 18 18 18 18 18 19 19 19 19 19 18 18 18 18 18 17
21 21 21 21 20 20 20 19 19 19 19 19 19 19 19 18 18 18 18 18 18 18 18 18 18 18 18 18 18 18 18 18 18 18 19 19 19 18 18 18 18 18 18
22 21 21 21 20 20 20 19 19 19 19 19 19 19 18 18 18 18 18 18 18 18 18 18 18 18 18 18 18 18 18 18 18 18 18 18 18 18 18 18 18 18 17
22 21 20 20 20 20 20 19 19 19 19 19 18 18 18 18 18 18 18 18 18 18 18 18 18 18 18 18 18 18 18 18 18 18 18 18 18 18 18 18 18 18 18
Wind_Speed
16 16 16 16 15 15 15 15 15 15 15 15 15 16 16 17 17 17 18 18 18 18 18 18 18 18 18 18 18 18 19 19 20 20 20 19 18 16 17 18 20 18 19
19 18 17 16 16 15 15 15 15 14 14 15 15 15 15 16 16 16 17 17 17 17 17 17 17 18 18 18 17 16 17 17 18 19 19 18 17 16 16 18 18 16 18
19 18 17 16 16 15 15 14 14 14 14 14 14 15 15 15 16 16 16 16 17 17 17 17 17 17 17 16 15 14 14 14 14 16 17 16 16 17 19 19 19 18 17
19 18 17 16 16 15 15 14 14 14 14 14 14 14 14 15 15 15 16 16 16 16 16 16 16 16 15 14 13 11 10 10 9 9 12 16 15 17 18 18 18 18 16
19 19 18 16 15 15 14 14 14 14 14 13 14 14 14 14 14 15 15 15 15 15 15 15 15 14 14 12 10 8 7 6 5 11 17 17 15 15 17 17 17 17 16
19 19 18 16 15 15 14 14 14 13 13 13 13 13 13 14 14 15 15 15 15 14 14 14 14 13 12 10 7 5 4 3 5 14 16 16 14 15 16 16 16 16 15
19 19 17 16 15 14 14 13 13 13 12 12 12 12 12 13 14 14 14 14 14 13 13 12 12 12 10 8 5 3 3 4 8 15 16 16 15 15 16 16 16 15 15
19 19 17 16 15 14 13 12 12 12 11 12 12 12 12 12 13 13 13 13 13 12 12 11 11 11 9 6 3 2 4 5 13 16 16 15 15 15 15 15 15 14 14
19 17 16 16 14 14 13 12 12 11 11 11 11 11 11 12 12 13 12 12 12 11 11 10 10 9 7 4 1 2 4 6 10 14 15 14 14 14 14 14 14 13 13
15 16 15 15 15 14 12 11 11 11 11 10 10 10 11 11 12 12 12 11 10 10 9 9 9 8 6 3 2 3 5 4 10 14 14 13 14 14 13 13 13 12 12
12 12 13 13 13 13 13 13 11 11 10 10 9 10 10 10 11 10 12 11 9 9 8 8 8 7 6 4 4 5 6 0 12 13 13 15 14 13 13 12 12 12 11
11 11 10 10 10 11 11 12 10 9 10 8 8 9 8 6 9 11 12 11 9 8 8 8 8 7 7 6 6 6 5 5 11 13 13 15 14 12 12 11 11 11 10
9 10 11 9 6 7 8 9 7 7 9 7 7 7 7 7 8 10 9 9 9 9 8 8 9 8 7 4 4 4 2 5 9 13 14 15 14 12 11 11 10 10 10
8 9 10 9 5 4 5 5 6 6 6 6 7 6 6 3 3 5 5 8 8 7 6 6 5 5 3 2 1 1 2 6 10 12 14 15 14 12 11 10 9 9 9
8 8 9 8 6 4 3 0 4 4 6 7 7 4 5 4 3 4 2 3 4 6 6 3 2 3 2 2 2 2 2 5 9 13 13 15 14 13 11 10 10 9 9
9 8 8 8 7 4 2 0 1 3 4 6 7 6 4 3 4 3 2 1 2 4 4 3 3 2 2 2 1 2 1 4 7 11 13 13 14 13 12 11 11 10 10
9 8 8 8 8 6 5 4 3 4 5 4 5 7 5 4 4 3 2 2 2 3 4 3 3 3 2 3 2 1 1 3 5 8 12 13 13 13 13 13 12 12 11
10 9 8 8 9 7 4 3 2 2 4 4 5 6 6 6 6 4 3 3 3 3 3 2 2 2 2 1 2 2 2 3 4 7 9 12 14 13 15 15 14 13 13
10 10 8 6 9 8 6 4 3 1 1 2 4 5 7 7 7 5 3 2 4 3 3 3 2 1 1 1 3 3 3 3 4 7 7 9 12 14 15 17 17 16 15
10 9 9 6 7 7 6 4 3 3 2 3 3 5 6 7 8 6 3 3 3 2 2 1 1 1 1 2 4 3 4 4 4 4 5 7 10 13 15 16 16 16 18
10 10 9 8 7 6 5 5 5 4 4 4 4 6 7 7 7 5 3 3 3 2 3 3 2 3 3 3 2 2 3 5 5 5 4 4 6 10 12 15 16 15 16
11 10 9 9 9 8 6 4 3 3 3 4 3 4 7 7 7 7 5 4 4 2 3 3 3 2 3 3 2 1 1 2 3 6 5 5 5 7 8 13 14 14 14
11 10 9 8 8 8 7 5 3 3 2 2 3 4 5 7 8 7 6 4 3 4 4 4 4 5 4 4 3 2 2 2 2 3 5 5 5 5 4 8 12 15 14
11 10 8 8 7 6 6 6 6 5 4 4 3 3 4 6 7 7 6 5 4 4 4 6 6 5 5 5 4 3 3 1 1 2 2 3 4 4 4 5 6 10 12
10 10 8 7 7 6 5 5 4 4 4 3 3 3 3 4 5 6 6 5 6 5 6 6 4 6 5 6 4 3 3 3 3 3 3 2 2 3 4 3 3 5 10
9 8 8 8 7 6 6 5 5 4 3 3 3 2 3 3 4 5 6 5 5 5 6 6 6 6 6 6 4 3 3 2 3 3 3 4 4 4 4 4 3 5 7
Wind_Direction
107 107 107 105 102 100 98 95 92 90 88 86 85 84 84 85 86 87 89 90 90 89 88 87 87 88 88 88 89 91 92 93 95 96 96 94 94 97 102 106 102 101 104
110 109 107 106 104 102 100 98 95 93 92 90 88 87 87 88 90 90 92 92 92 91 90 89 88 89 89 91 92 94 97 100 103 104 100 93 91 92 95 98 101 107 107
112 114 109 106 105 103 102 101 98 95 93 93 91 90 90 92 92 93 94 95 94 93 92 91 90 90 91 92 94 96 101 106 113 115 108 98 92 91 95 100 105 108 107
117 115 109 109 108 106 104 103 102 99 96 95 95 94 93 94 94 96 96 96 96 94 93 93 92 92 93 95 97 100 104 110 119 122 104 97 95 95 98 103 106 106 106
107 108 111 111 110 108 106 104 102 100 99 98 97 96 96 96 97 97 98 97 97 96 95 94 94 95 95 97 98 100 99 100 94 93 92 91 93 101 104 107 108 109 108
116 114 115 114 111 110 108 105 104 102 102 101 100 99 99 99 100 100 100 99 98 97 96 96 96 97 97 98 98 88 68 60 79 98 100 99 100 104 107 109 109 109 109
116 117 120 117 114 112 111 108 107 105 105 105 104 103 102 102 103 102 100 100 100 98 97 98 98 99 100 99 91 59 20 13 102 98 96 96 102 107 109 110 110 111 110
119 119 121 121 118 116 114 113 111 111 110 109 108 108 108 107 107 106 105 104 102 100 99 101 103 104 105 102 82 22 360 3 105 103 99 101 109 110 111 112 113 113 113
120 126 133 132 126 122 119 119 117 116 115 115 116 118 119 118 116 114 111 109 107 106 105 106 110 111 115 119 115 330 338 354 100 111 108 109 114 114 115 116 117 117 117
127 132 137 138 137 137 131 128 125 125 126 127 130 133 133 132 128 128 121 117 115 115 115 117 121 125 132 152 219 291 312 324 113 103 107 117 121 119 120 121 120 120 122
124 129 136 136 144 145 140 138 141 140 141 144 148 153 156 155 146 143 124 129 130 130 132 135 139 147 157 186 227 267 288 208 104 103 110 124 127 125 124 126 127 125 128
129 130 129 131 142 148 137 145 155 152 154 171 158 169 178 160 147 134 138 145 148 151 156 164 165 171 189 192 211 234 250 145 118 113 121 131 132 132 132 133 133 133 133
139 135 130 124 141 138 130 152 155 146 155 166 158 172 165 155 146 140 153 159 169 173 181 173 186 199 208 202 193 202 198 101 106 114 132 139 140 141 142 141 141 142 144
150 139 133 131 130 103 118 142 149 146 153 155 164 185 152 143 140 144 161 171 178 181 181 185 196 179 171 186 183 148 101 103 113 118 141 148 150 151 153 153 152 152 152
151 143 125 125 114 103 80 74 146 143 149 153 158 175 162 159 155 138 149 188 189 160 169 199 158 139 143 187 209 127 81 99 118 129 144 157 159 161 164 166 168 168 167
161 148 133 135 132 136 146 1 91 141 140 155 158 164 184 151 133 147 165 221 209 158 154 175 162 153 183 205 207 122 127 108 118 133 148 164 170 173 176 179 180 182 182
160 148 145 152 149 166 177 195 192 188 167 160 149 159 182 161 148 170 174 208 205 163 150 171 185 190 204 194 175 162 148 134 137 143 153 166 176 185 188 188 189 191 192
159 153 165 177 160 167 193 207 225 205 152 152 156 166 186 172 178 199 187 197 185 175 178 187 205 201 183 177 169 189 162 160 166 172 175 176 177 182 191 196 196 197 200
154 154 168 182 157 167 186 200 233 205 155 166 164 174 187 187 190 201 201 182 190 193 200 210 169 194 197 197 205 192 200 190 189 202 189 192 184 177 180 193 200 202 204
155 158 169 178 160 167 174 189 221 220 194 198 191 180 182 196 199 208 200 181 209 206 185 202 153 210 231 230 244 201 204 197 204 204 203 201 191 187 185 184 192 205 210
161 166 171 178 170 179 188 191 198 206 209 211 207 192 193 205 200 207 222 176 207 219 197 198 206 221 234 236 247 239 228 214 204 203 213 203 198 196 188 178 187 194 202
169 173 176 183 179 188 195 204 201 203 215 214 215 185 200 203 204 205 206 208 200 212 224 226 219 243 253 232 221 236 272 259 237 216 203 207 206 193 193 192 193 193 196
173 180 185 183 179 189 189 188 204 189 224 227 210 197 203 205 211 216 201 213 199 210 213 219 217 221 241 253 228 202 221 238 260 234 214 207 196 192 207 198 195 197 200
176 178 177 173 175 182 188 195 195 197 209 221 218 198 198 210 217 216 208 210 215 223 212 220 219 223 229 247 249 226 228 233 234 285 268 224 204 201 218 226 208 194 197
175 174 171 169 178 182 192 202 203 213 212 216 208 182 198 210 222 223 216 211 209 224 225 226 225 223 225 234 245 235 235 246 228 221 253 262 245 218 212 223 213 193 198
168 164 162 164 174 178 190 201 204 215 217 222 224 194 206 214 215 220 223 216 211 221 229 229 227 228 232 241 246 254 238 222 232 228 231 238 241 238 215 208 199 191 195
Height
1527 1527 1529 1530 1531 1532 1533 1534 1535 1536 1536 1537 1537 1538 1539 1539 1540 1541 1542 1543 1544 1544 1545 1546 1547 1548 1548 1549 1551 1552 1553 1554 1555 1556 1557 1558 1559 1560 1561 1562 1563 1565 1566
1527 1529 1530 1532 1533 1534 1535 1536 1537 1538 1539 1540 1540 1541 1542 1542 1543 1544 1545 1545 1546 1547 1548 1549 1550 1550 1551 1552 1553 1554 1556 1557 1558 1559 1560 1561 1562 1563 1564 1565 1566 1567 1569
1528 1530 1532 1534 1535 1536 1538 1539 1540 1541 1542 1542 1543 1544 1544 1545 1546 1547 1548 1548 1549 1550 1551 1552 1552 1553 1554 1555 1556 1557 1558 1559 1560 1561 1562 1563 1564 1565 1566 1567 1568 1569 1571
1531 1532 1534 1536 1537 1539 1540 1541 1542 1543 1544 1545 1546 1546 1547 1548 1548 1549 1550 1551 1552 1553 1554 1554 1555 1556 1557 1558 1559 1560 1561 1562 1563 1565 1566 1566 1566 1567 1568 1569 1571 1572 1573
1532 1534 1536 1538 1539 1541 1542 1543 1544 1545 1546 1547 1548 1549 1550 1550 1551 1552 1553 1554 1554 1555 1556 1557 1557 1558 1559 1560 1562 1563 1564 1565 1566 1567 1568 1568 1569 1570 1571 1572 1573 1574 1576
1534 1536 1538 1540 1541 1543 1544 1546 1547 1548 1549 1549 1550 1551 1552 1553 1554 1555 1555 1556 1557 1558 1559 1559 1560 1561 1562 1563 1564 1565 1566 1567 1569 1570 1570 1571 1571 1572 1573 1574 1575 1576 1578
1537 1538 1540 1542 1543 1545 1546 1548 1549 1550 1551 1552 1552 1553 1554 1555 1556 1557 1558 1559 1559 1560 1561 1562 1563 1563 1564 1566 1567 1568 1569 1570 1571 1572 1572 1573 1573 1574 1575 1576 1577 1579 1580
1538 1540 1542 1544 1545 1547 1548 1550 1551 1552 1553 1554 1555 1556 1557 1558 1558 1559 1560 1561 1562 1563 1563 1564 1565 1566 1567 1568 1569 1570 1571 1572 1574 1574 1574 1574 1575 1576 1577 1578 1579 1581 1582
1540 1541 1543 1545 1547 1549 1550 1551 1553 1554 1555 1556 1557 1558 1559 1560 1561 1561 1562 1563 1564 1565 1566 1566 1567 1568 1569 1570 1571 1572 1573 1574 1576 1576 1576 1576 1577 1578 1579 1580 1581 1582 1584
1543 1544 1545 1547 1548 1550 1552 1553 1554 1555 1556 1558 1559 1560 1561 1562 1563 1563 1564 1565 1566 1567 1568 1569 1569 1570 1571 1573 1574 1575 1575 1576 1577 1577 1577 1578 1579 1580 1581 1582 1583 1584 1585
1545 1546 1548 1549 1550 1552 1553 1554 1556 1557 1558 1559 1561 1561 1562 1563 1564 1565 1566 1567 1568 1569 1570 1571 1572 1573 1574 1575 1576 1577 1577 1578 1579 1578 1579 1580 1580 1581 1582 1583 1584 1585 1586
1546 1548 1549 1551 1553 1554 1556 1556 1557 1558 1559 1561 1562 1563 1564 1565 1566 1567 1568 1569 1570 1571 1572 1573 1574 1574 1575 1576 1578 1578 1579 1580 1580 1579 1580 1581 1582 1582 1583 1584 1585 1586 1587
1546 1548 1550 1551 1554 1556 1557 1557 1559 1560 1560 1562 1563 1564 1566 1567 1568 1568 1569 1570 1571 1572 1573 1574 1575 1575 1577 1578 1579 1580 1581 1581 1581 1581 1581 1582 1583 1583 1584 1585 1586 1587 1588
1547 1549 1550 1552 1554 1556 1557 1558 1559 1560 1561 1562 1563 1565 1566 1568 1568 1569 1570 1571 1572 1573 1574 1575 1576 1577 1578 1580 1580 1581 1582 1582 1581 1581 1582 1583 1584 1584 1585 1585 1586 1587 1588
1546 1549 1550 1551 1553 1554 1556 1558 1559 1561 1561 1562 1563 1565 1566 1568 1569 1570 1570 1572 1573 1574 1575 1576 1577 1578 1579 1580 1581 1582 1582 1582 1582 1582 1582 1583 1584 1584 1585 1586 1587 1588 1588
1546 1548 1549 1551 1552 1554 1556 1557 1558 1560 1561 1563 1564 1565 1566 1567 1568 1570 1570 1571 1573 1574 1575 1576 1577 1578 1579 1580 1581 1581 1582 1583 1582 1582 1582 1583 1584 1584 1585 1586 1587 1587 1588
1545 1547 1548 1550 1551 1553 1555 1557 1558 1559 1561 1563 1563 1564 1566 1567 1568 1569 1570 1571 1572 1574 1574 1575 1576 1577 1578 1579 1580 1581 1582 1582 1582 1582 1582 1582 1583 1584 1585 1585 1586 1587 1588
1543 1545 1547 1550 1550 1552 1554 1556 1558 1559 1561 1562 1562 1564 1565 1566 1567 1568 1569 1570 1571 1573 1574 1575 1576 1577 1578 1579 1579 1580 1580 1581 1581 1582 1582 1582 1582 1583 1584 1585 1585 1586 1587
1541 1543 1546 1548 1549 1551 1553 1554 1556 1558 1559 1560 1561 1562 1563 1565 1566 1567 1568 1569 1570 1572 1573 1574 1575 1576 1576 1577 1578 1578 1579 1580 1580 1581 1581 1582 1582 1582 1582 1583 1584 1585 1585
1540 1542 1544 1546 1548 1549 1551 1553 1554 1556 1558 1559 1560 1561 1562 1563 1564 1565 1567 1568 1569 1571 1572 1573 1574 1574 1575 1576 1577 1577 1577 1578 1578 1579 1580 1580 1581 1581 1581 1581 1582 1583 1584
1539 1540 1542 1544 1546 1547 1549 1551 1552 1554 1555 1557 1558 1559 1560 1561 1562 1563 1565 1567 1568 1569 1570 1571 1572 1573 1574 1575 1576 1576 1576 1576 1576 1576 1577 1578 1579 1580 1580 1580 1580 1581 1582
1537 1538 1540 1542 1544 1545 1547 1549 1551 1552 1554 1555 1556 1556 1557 1559 1560 1562 1563 1564 1566 1567 1568 1569 1570 1571 1572 1573 1574 1574 1574 1575 1574 1575 1575 1576 1577 1578 1578 1578 1578 1579 1579
1535 1537 1539 1540 1542 1544 1545 1547 1549 1550 1552 1553 1553 1554 1555 1556 1558 1559 1561 1562 1564 1565 1566 1567 1568 1569 1570 1571 1572 1572 1572 1572 1572 1572 1573 1574 1574 1575 1576 1576 1576 1576 1577
1533 1535 1537 1539 1540 1542 1543 1545 1546 1547 1549 1550 1551 1552 1553 1554 1556 1557 1558 1560 1561 1562 1563 1564 1565 1566 1567 1568 1569 1569 1570 1570 1571 1570 1571 1571 1571 1572 1572 1573 1573 1573 1573
1532 1534 1535 1537 1538 1540 1541 1543 1544 1546 1547 1548 1549 1550 1551 1552 1553 1554 1556 1557 1558 1559 1560 1561 1562 1563 1564 1565 1566 1567 1567 1568 1568 1569 1568 1568 1569 1569 1569 1569 1570 1570 1570
1531 1532 1534 1534 1536 1538 1539 1541 1542 1544 1545 1546 1547 1548 1549 1550 1551 1551 1553 1554 1555 1556 1557 1558 1558 1559 1560 1561 1562 1563 1564 1565 1565 1565 1565 1565 1565 1565 1566 1566 1566 1567 1567